Regional Weather Roundup
Issued by NWS San Angelo, TX

Current Version | Previous Version | Text Only | Print | Product List | Glossary On
Versions: 1 2 3 4 5 6 7 8 9 10 11 12 13 14 15 16 17 18 19 20 21 22 23 24 25 26 27 28 29 30 31 32 33 34 35 36 37 38 39 40 41 42 43 44 45 46 47 48 49 50
000
ASUS44 KSJT 300710
RWRSJT
WEST CENTRAL TEXAS REGIONAL WEATHER ROUNDUP
NATIONAL WEATHER SERVICE SAN ANGELO TX
200 AM CDT MON MAR 30 2015

NOTE: "FAIR" INDICATES FEW OR NO CLOUDS BELOW 12,000 FEET WITH NO
SIGNIFICANT WEATHER AND/OR OBSTRUCTIONS TO VISIBILITY.

TXZ049-054-064>066-071>073-076>078-098-099-113-114-127-128-139-140-
154-155-168>170-300800
...LOCATIONS ACROSS WEST CENTRAL TEXAS...

CITY           SKY/WX    TMP DP  RH WIND       PRES   REMARKS
SAN ANGELO     CLEAR     63  50  62 NW3       30.14S
ABILENE        PTCLDY    61  45  55 N3        30.14R
DYESS AFB      PTCLDY    52  46  79 SW6       30.14R
JUNCTION       CLEAR     62  55  77 CALM      30.13R
SWEETWATER     PTCLDY    57  41  54 NE8       30.19S
BROWNWOOD      CLEAR     64  50  59 N5        30.09S
COLEMAN        SUNNY     61  49  65 CALM      30.12R
SONORA         PTCLDY    61  50  67 N3        30.18S
OZONA          FAIR      61  46  59 N6        30.17R
BRADY          CLEAR     61  52  72 W6        30.11R
$$

TEXAS PANHANDLE/OKLAHOMA PANHANDLE

CITY           SKY/WX    TMP DP  RH WIND       PRES   REMARKS
AMARILLO       PTCLDY    47  25  42 S5        30.25S
BORGER         PTCLDY    51  26  37 CALM      30.23R
CANADIAN       CLEAR     41  33  73 CALM      30.22R
DALHART        CLOUDY    51  27  39 S7        30.24F
DUMAS          PTSUNNY   45  24  43 S3        30.24S
GUYMON         NOT AVBL
HEREFORD       SUNNY     42  30  62 CALM      30.24R
PAMPA          MOSUNNY   48  28  46 SE8       30.23F
PERRYTON       CLEAR     47  29  50 E6        30.22F
$$

SOUTHERN PANHANDLE/SOUTH PLAINS/ROLLING PLAINS

CITY           SKY/WX    TMP DP  RH WIND       PRES   REMARKS
LUBBOCK        MOCLDY    50  26  39 NE9       30.20F
SNYDER         PTCLDY    62  37  40 NE8       30.18R
CHILDRESS      CLEAR     56  29  35 NE3       30.21R
SEMINOLE       CLOUDY    53  35  51 CALM      30.22R
$$

PERMIAN BASIN

CITY           SKY/WX    TMP DP  RH WIND       PRES   REMARKS
MIDLAND        CLOUDY    59  39  47 E8        30.17F
ODESSA         CLOUDY    60  38  43 E10       30.18F
WINK           PTCLDY    64  36  35 E10       30.16R
$$

FAR WEST/SOUTHWEST MOUNTAINS/TRANS PECOS

CITY           SKY/WX    TMP DP  RH WIND       PRES   REMARKS
ALPINE         SUNNY     49  38  66 CALM      30.26F
DRYDEN           N/A     68  54  60 NE13      30.08S
EL PASO        CLOUDY    77  17  10 CALM      30.14S
FORT STOCKTON  CLEAR     61  43  51 E9        30.15F
GUADALUPE PASS PTCLDY    58  33  39 NE35      30.28S
MARFA          PTCLDY    57  37  47 N9        30.23S
PECOS          SUNNY     63  39  41 NE10      30.15F
$$

DALLAS/FORT WORTH METROPLEX

CITY           SKY/WX    TMP DP  RH WIND       PRES   REMARKS
DFW AIRPORT    PTCLDY    66  55  67 CALM      30.08R
FTW MEACHAM    CLEAR     65  56  72 N3        30.07R
DAL-EXECUTIVE  CLEAR     67  55  65 S8        30.07S
GRAND PRAIRIE  NOT AVBL
ADDISON        CLEAR     67  56  66 SE5       30.11R
MESQUITE       SUNNY     64  56  77 SE8       30.10R
LANCASTER      SUNNY     61  54  76 S3        30.09F
$$

NORTH CENTRAL TEXAS

CITY           SKY/WX    TMP DP  RH WIND       PRES   REMARKS
SHRMAN/DENISON SUNNY     61  49  66 NE7       30.14S
GAINESVILLE    CLEAR     60  45  56 N6        30.15S
BRIDGEPORT     SUNNY     64  51  62 NE7       30.13R
DENTON         CLEAR     64  52  64 NE13      30.10R
WAXAHACHIE     SUNNY     64  57  78 S8        30.10S
GRANBURY         N/A     67  56  68 SE9       30.07S
$$

WESTERN NORTH TEXAS

CITY           SKY/WX    TMP DP  RH WIND       PRES   REMARKS
WICHITA FALLS  CLEAR     52  44  74 NE3       30.15S
VERNON         SUNNY     52  37  56 NE8       30.17S
BRECKENRIDGE   SUNNY     65  46  50 NE12G17   30.11R
COMANCHE       CLEAR     64  53  68 NW6       30.09S
$$

CENTRAL AND SOUTH CENTRAL TEXAS

CITY           SKY/WX    TMP DP  RH WIND       PRES   REMARKS
AUSTIN/BERGSTM PTCLDY    61  60  97 S7        30.12R
WACO           CLEAR     63  57  81 S10       30.10S
HILLSBORO      SUNNY     65  56  72 S12       30.10S
TEMPLE         CLEAR     63  55  77 S12       30.10R
KILLEEN-GRAY   PTCLDY    64  60  87 S9        30.09R
FORT HOOD      CLEAR     65  60  84 S9        30.09R
GEORGETOWN     PTCLDY    66  59  77 S13G20    30.10S
LAGO VISTA     FAIR      64  61  87 S8        30.13R
SAN MARCOS     CLEAR     61  57  88 SW3       30.14S
NEW BRAUNFELS  CLEAR     61  59  93 S8        30.12R
RANDOLPH AFB   CLEAR     60  60  97 SE3       30.13R
SAN ANTONIO    PTCLDY    65  61  87 SE8       30.13S
STINSON        PTCLDY    62  60  93 SE6       30.10F
PLEASANTON     NOT AVBL
LA GRANGE      PTCLDY    68  65  89 S8        30.12S
GIDDINGS       CLOUDY    67  62  85 S14G20    30.15S
$$

EAST TEXAS

CITY           SKY/WX    TMP DP  RH WIND       PRES   REMARKS
PARIS          NOT AVBL
CLARKSVILLE    NOT AVBL
TYLER          CLEAR     67  59  75 S12G21    30.12S
LONGVIEW       CLOUDY    65  60  84 S8        30.13R
PALESTINE      CLOUDY    67  61  82 S8        30.15S
NACOGDOCHES    CLOUDY    64  59  82 S5        30.16S
$$

TEXAS HILL COUNTRY AND EDWARDS PLATEAU

CITY           SKY/WX    TMP DP  RH WIND       PRES   REMARKS
LLANO          SUNNY     61  57  88 CALM      30.14S
HORSESHOE BAY  FAIR      65  62  89 CALM      30.11S
KERRVILLE      PTCLDY    61  59  94 S6        30.15S
FREDERICKSBRG  CLEAR     62  60  91 CALM      30.13F
ROCKSPRINGS    NOT AVBL
HONDO          PTCLDY    64  61  90 SE6       30.13R
UVALDE         MOSUNNY   64  59  83 E7        30.10S
DEL RIO        MOCLDY    70  58  65 E13       30.04S
$$

SOUTHEAST TEXAS

CITY           SKY/WX    TMP DP  RH WIND       PRES   REMARKS
COLLEGE STN    CLEAR     66  61  84 S10       30.11F
CALDWELL       SUNNY     64  64 100 S9        30.14R
CROCKETT       PTSUNNY   68  64  88 SW6       30.17S
BRENHAM        CLEAR     68  64  87 S12G17    30.13F
HUNTSVILLE     CLEAR     66  62  87 S9G20     30.13S
CONROE         CLEAR     65  61  87 S7        30.14F
HOUSTON BUSH   PTCLDY    66  63  90 S7        30.14F
HOUSTON HOBBY  PTCLDY    64  62  93 CALM      30.15F
PERLAND        CLEAR     67  62  84 CALM      30.17S
WHARTON        SUNNY     64  62  95 S5        30.16R
$$

THE UPPER TEXAS COAST

CITY           SKY/WX    TMP DP  RH WIND       PRES   REMARKS
ORANGE         SUNNY     66  60  81 SW6       30.18F
PORT ARTHUR    CLEAR     64  62  93 SW5       30.16F
GALVESTON      CLEAR     67  65  93 S8        30.17S
ANGLETON       CLEAR     63  63 100 S7        30.15F
BAY CITY       SUNNY     66  66  99 S6        30.14F
$$

TEXAS COASTAL BEND, RIO GRANDE PLAINS DEEP SOUTH TEXAS

CITY           SKY/WX    TMP DP  RH WIND       PRES   REMARKS
VICTORIA       CLOUDY    66  66 100 S8        30.13S
BEEVILLE       CLOUDY    66  66 100 S10       30.11S
ROCKPORT       CLEAR     69  65  86 S7        30.12S
PORT ARANSAS   SUNNY     67  65  94 S10G18    30.11S
PORT LAVACA    PTSUNNY   66  65  95 S7        30.13F
CORPUS CHRISTI PTCLDY    67  65  93 S14       30.10F
KINGSVILLE NAS CLEAR     69  67  93 S12G21    30.10S
COTULLA        MOCLDY    68  61  78 SE7       30.08R
LAREDO         CLEAR     67  63  87 SE10      30.07S
BROWNSVILLE    CLEAR     69  66  90 S12       30.12F
PORT ISABEL    CLEAR     69  66  90 S13       30.11S
HEBBRONVILLE   NOT AVBL
MCALLEN        PTCLDY    70  66  87 SE13      30.09F
WESLACO        MOCLDY    68  65  90 S12G17    30.09F
FALFURRIAS     SUNNY     65  63  93 SE7       30.08F
EDINBURG       SUNNY     70  66  86 SE13      30.09F
$$


USA.gov is the U.S. government's official web portal to all federal, state and local government web resources and services.